CCA722 VIDP-VNKT

Flight info

Callsign CCA722
Flight time 1h 8m
Altitude 35000
Route ALI G452 LKN G598 SMR SMR
Aircraft A321/M-SDE3FGHIRWY/LB1

Departure

Time 2026-05-05 09:41
Airport Indira Gandhi International Airport (VIDP)

Arrival

Time 2026-05-05 10:49
Airport Tribhuvan International Airport (VNKT)
Time Latitude Longitude Altitude Speed Heading
2026-05-05 08:33 28.56250 77.08177 729 ft 0 kts 242°
2026-05-05 09:26 28.56250 77.08178 731 ft 1 kts 242°
2026-05-05 09:26 28.56257 77.08194 731 ft 4 kts 255°
2026-05-05 09:27 28.56257 77.08243 731 ft 0 kts 274°
2026-05-05 09:30 28.56267 77.08232 729 ft 5 kts 324°
2026-05-05 09:30 28.56314 77.08206 730 ft 8 kts 309°
2026-05-05 09:30 28.56330 77.08153 730 ft 5 kts 281°
2026-05-05 09:30 28.56330 77.08149 731 ft 0 kts 280°
2026-05-05 09:32 28.56331 77.08145 731 ft 2 kts 282°
2026-05-05 09:33 28.56343 77.08096 730 ft 10 kts 288°
2026-05-05 09:33 28.56348 77.08008 731 ft 10 kts 244°
2026-05-05 09:33 28.56297 77.07970 731 ft 8 kts 196°
2026-05-05 09:33 28.56248 77.07955 731 ft 7 kts 195°
2026-05-05 09:34 28.56183 77.07937 731 ft 13 kts 195°
2026-05-05 09:34 28.56088 77.07910 732 ft 14 kts 194°
2026-05-05 09:34 28.56002 77.07882 733 ft 12 kts 198°
2026-05-05 09:34 28.55912 77.07854 734 ft 16 kts 194°
2026-05-05 09:35 28.55784 77.07816 735 ft 22 kts 195°
2026-05-05 09:35 28.55473 77.07723 738 ft 21 kts 193°
2026-05-05 09:35 28.55336 77.07683 739 ft 20 kts 194°
2026-05-05 09:36 28.55209 77.07645 740 ft 18 kts 202°
2026-05-05 09:36 28.55182 77.07532 739 ft 15 kts 279°
2026-05-05 09:36 28.55208 77.07420 737 ft 14 kts 280°
2026-05-05 09:36 28.55232 77.07317 736 ft 13 kts 283°
2026-05-05 09:37 28.55255 77.07219 735 ft 13 kts 285°
2026-05-05 09:37 28.55276 77.07125 732 ft 12 kts 284°
2026-05-05 09:37 28.55299 77.07034 732 ft 11 kts 286°
2026-05-05 09:37 28.55307 77.06945 731 ft 12 kts 252°
2026-05-05 09:38 28.55246 77.06902 731 ft 11 kts 194°
2026-05-05 09:38 28.55177 77.06881 733 ft 10 kts 194°
2026-05-05 09:38 28.55073 77.06850 729 ft 21 kts 192°
2026-05-05 09:38 28.54947 77.06814 728 ft 18 kts 194°
2026-05-05 09:39 28.54800 77.06776 731 ft 21 kts 196°
2026-05-05 09:39 28.54700 77.06763 733 ft 11 kts 163°
2026-05-05 09:39 28.54666 77.06810 734 ft 0 kts 108°
2026-05-05 09:40 28.54666 77.06811 734 ft 1 kts 108°
2026-05-05 09:40 28.54632 77.06961 735 ft 51 kts 104°
2026-05-05 09:40 28.54499 77.07586 741 ft 109 kts 104°
2026-05-05 09:40 28.54285 77.08603 759 ft 154 kts 103°
2026-05-05 09:41 28.54020 77.09879 951 ft 174 kts 99°
2026-05-05 09:41 28.53732 77.11287 1311 ft 191 kts 104°
2026-05-05 09:41 28.53336 77.12785 1621 ft 205 kts 110°
2026-05-05 09:41 28.52945 77.14365 2069 ft 212 kts 105°
2026-05-05 09:42 28.52590 77.16055 2165 ft 235 kts 105°
2026-05-05 09:42 28.52077 77.17900 2422 ft 252 kts 119°
2026-05-05 09:42 28.51055 77.19553 3048 ft 257 kts 128°
2026-05-05 09:42 28.49951 77.21180 3695 ft 263 kts 128°
2026-05-05 09:43 28.48821 77.22836 4302 ft 268 kts 128°
2026-05-05 09:43 28.47666 77.24523 4923 ft 273 kts 129°
2026-05-05 09:43 28.46491 77.26235 5578 ft 276 kts 128°
2026-05-05 09:43 28.45301 77.27967 6242 ft 279 kts 128°
2026-05-05 09:44 28.44096 77.29722 6873 ft 283 kts 128°
2026-05-05 09:44 28.42878 77.31496 7505 ft 286 kts 128°
2026-05-05 09:44 28.41657 77.33272 8123 ft 289 kts 128°
2026-05-05 09:44 28.40407 77.35091 8743 ft 293 kts 128°
2026-05-05 09:45 28.39157 77.36912 9379 ft 296 kts 128°
2026-05-05 09:45 28.37879 77.38773 10004 ft 299 kts 128°
2026-05-05 09:45 28.36554 77.40696 10204 ft 319 kts 129°
2026-05-05 09:45 28.35137 77.42750 10327 ft 340 kts 129°
2026-05-05 09:46 28.33632 77.44927 10450 ft 359 kts 128°
2026-05-05 09:46 28.32072 77.47184 10665 ft 374 kts 128°
2026-05-05 09:46 28.30459 77.49523 11189 ft 377 kts 128°
2026-05-05 09:46 28.28832 77.51884 11739 ft 381 kts 129°
2026-05-05 09:47 28.27185 77.54273 12274 ft 386 kts 129°
2026-05-05 09:47 28.25522 77.56679 12889 ft 388 kts 129°
2026-05-05 09:47 28.23865 77.59073 13453 ft 391 kts 129°
2026-05-05 09:47 28.22174 77.61513 14023 ft 393 kts 129°
2026-05-05 09:48 28.20471 77.63970 14543 ft 396 kts 129°
2026-05-05 09:48 28.18759 77.66439 15042 ft 399 kts 129°
2026-05-05 09:48 28.17056 77.68895 15523 ft 403 kts 129°
2026-05-05 09:48 28.15315 77.71406 15997 ft 406 kts 129°
2026-05-05 09:49 28.13555 77.73944 16467 ft 410 kts 129°
2026-05-05 09:49 28.11783 77.76497 16930 ft 413 kts 129°
2026-05-05 09:49 28.10015 77.79046 17360 ft 417 kts 129°
2026-05-05 09:49 28.08213 77.81642 17798 ft 420 kts 129°
2026-05-05 09:50 28.06393 77.84260 18235 ft 424 kts 130°
2026-05-05 09:50 28.04563 77.86889 18614 ft 427 kts 130°
2026-05-05 09:50 28.02722 77.89528 19001 ft 429 kts 130°
2026-05-05 09:50 28.00877 77.92171 19381 ft 432 kts 130°
2026-05-05 09:51 27.99004 77.94853 19769 ft 434 kts 130°
2026-05-05 09:51 27.97124 77.97544 20142 ft 437 kts 130°
2026-05-05 09:51 27.95227 78.00259 20509 ft 440 kts 130°
2026-05-05 09:51 27.93340 78.02962 20878 ft 442 kts 130°
2026-05-05 09:52 27.91422 78.05707 21254 ft 445 kts 130°
2026-05-05 09:52 27.89500 78.08457 21619 ft 447 kts 130°
2026-05-05 09:52 27.87556 78.11230 21979 ft 450 kts 130°
2026-05-05 09:52 27.85605 78.14010 22345 ft 452 kts 130°
2026-05-05 09:53 27.83689 78.16847 22702 ft 456 kts 125°
2026-05-05 09:53 27.82120 78.19981 23048 ft 461 kts 116°
2026-05-05 09:53 27.80882 78.23279 23380 ft 464 kts 114°
2026-05-05 09:53 27.79624 78.26658 23669 ft 466 kts 114°
2026-05-05 09:54 27.78359 78.30043 23959 ft 468 kts 114°
2026-05-05 09:54 27.77083 78.33441 24245 ft 470 kts 114°
2026-05-05 09:54 27.75798 78.36854 24526 ft 473 kts 114°
2026-05-05 09:54 27.74524 78.40240 24794 ft 475 kts 114°
2026-05-05 09:55 27.73229 78.43681 25078 ft 477 kts 114°
2026-05-05 09:55 27.71924 78.47137 25351 ft 479 kts 114°
2026-05-05 09:55 27.70608 78.50617 25617 ft 482 kts 114°
2026-05-05 09:55 27.69303 78.54074 25888 ft 484 kts 114°
2026-05-05 09:56 27.67979 78.57588 26152 ft 486 kts 114°
2026-05-05 09:56 27.66651 78.61110 26409 ft 488 kts 114°
2026-05-05 09:56 27.65310 78.64659 26660 ft 490 kts 114°
2026-05-05 09:56 27.63984 78.68166 26905 ft 492 kts 114°
2026-05-05 09:57 27.62637 78.71724 27165 ft 494 kts 115°
2026-05-05 09:57 27.61283 78.75297 27397 ft 496 kts 115°
2026-05-05 09:57 27.59916 78.78889 27622 ft 498 kts 115°
2026-05-05 09:57 27.58543 78.82492 27865 ft 500 kts 115°
2026-05-05 09:58 27.57185 78.86057 28106 ft 502 kts 115°
2026-05-05 09:58 27.55804 78.89683 28323 ft 504 kts 115°
2026-05-05 09:58 27.54410 78.93341 28576 ft 505 kts 115°
2026-05-05 09:58 27.53020 78.96982 28893 ft 505 kts 115°
2026-05-05 09:59 27.51631 79.00621 29207 ft 505 kts 115°
2026-05-05 09:59 27.50258 79.04219 29493 ft 505 kts 115°
2026-05-05 09:59 27.48871 79.07856 29781 ft 505 kts 115°
2026-05-05 09:59 27.47483 79.11487 30066 ft 504 kts 115°
2026-05-05 10:00 27.46090 79.15118 30321 ft 504 kts 115°
2026-05-05 10:00 27.44699 79.18737 30566 ft 503 kts 115°
2026-05-05 10:00 27.43304 79.22362 30816 ft 503 kts 115°
2026-05-05 10:00 27.41932 79.25931 31057 ft 503 kts 115°
2026-05-05 10:01 27.40541 79.29549 31314 ft 503 kts 115°
2026-05-05 10:01 27.39146 79.33178 31564 ft 503 kts 115°
2026-05-05 10:01 27.37771 79.36748 31810 ft 502 kts 116°
2026-05-05 10:01 27.36376 79.40363 32037 ft 502 kts 116°
2026-05-05 10:02 27.34977 79.43988 32279 ft 503 kts 116°
2026-05-05 10:02 27.33581 79.47606 32489 ft 503 kts 116°
2026-05-05 10:02 27.32178 79.51206 32725 ft 503 kts 117°
2026-05-05 10:02 27.30764 79.54764 32955 ft 503 kts 117°
2026-05-05 10:03 27.29320 79.58344 33179 ft 503 kts 117°
2026-05-05 10:03 27.27860 79.61940 33416 ft 504 kts 117°
2026-05-05 10:03 27.26394 79.65554 33635 ft 504 kts 117°
2026-05-05 10:03 27.24961 79.69103 33856 ft 504 kts 117°
2026-05-05 10:04 27.23507 79.72711 34041 ft 504 kts 117°
2026-05-05 10:04 27.22059 79.76313 34218 ft 505 kts 117°
2026-05-05 10:04 27.20621 79.79892 34393 ft 505 kts 118°
2026-05-05 10:04 27.19164 79.83509 34542 ft 506 kts 118°
2026-05-05 10:05 27.17729 79.87067 34697 ft 507 kts 118°
2026-05-05 10:05 27.16258 79.90703 34841 ft 508 kts 118°
2026-05-05 10:05 27.13358 79.97871 34872 ft 506 kts 118°
2026-05-05 10:06 27.10438 80.05066 34887 ft 505 kts 118°
2026-05-05 10:06 27.07526 80.12247 34882 ft 504 kts 118°
2026-05-05 10:07 27.04639 80.19358 34881 ft 504 kts 118°
2026-05-05 10:07 27.01719 80.26526 34883 ft 504 kts 118°
2026-05-05 10:08 26.98790 80.33681 34887 ft 504 kts 118°
2026-05-05 10:08 26.95879 80.40805 34889 ft 504 kts 118°
2026-05-05 10:09 26.92955 80.47966 34888 ft 504 kts 118°
2026-05-05 10:09 26.90035 80.55091 34900 ft 504 kts 118°
2026-05-05 10:10 26.87097 80.62230 34902 ft 504 kts 118°
2026-05-05 10:10 26.84155 80.69374 34861 ft 503 kts 118°
2026-05-05 10:11 26.81235 80.76452 34868 ft 503 kts 118°
2026-05-05 10:11 26.78310 80.83564 34870 ft 503 kts 116°
2026-05-05 10:12 26.76587 80.91187 34870 ft 510 kts 96°
2026-05-05 10:12 26.76949 80.99141 34869 ft 513 kts 83°
2026-05-05 10:13 26.77833 81.07030 34878 ft 514 kts 84°
2026-05-05 10:13 26.78702 81.14976 34879 ft 513 kts 84°
2026-05-05 10:14 26.79562 81.22890 34881 ft 513 kts 84°
2026-05-05 10:14 26.80417 81.30834 34880 ft 513 kts 84°
2026-05-05 10:15 26.81274 81.38719 34878 ft 513 kts 84°
2026-05-05 10:15 26.82136 81.46659 34880 ft 513 kts 84°
2026-05-05 10:16 26.82992 81.54614 34880 ft 513 kts 84°
2026-05-05 10:16 26.83831 81.62496 34889 ft 513 kts 84°
2026-05-05 10:17 26.84671 81.70441 34886 ft 513 kts 85°
2026-05-05 10:17 26.85504 81.78336 34873 ft 512 kts 85°
2026-05-05 10:18 26.86195 81.84930 34865 ft 512 kts 85°
2026-05-05 10:18 26.87157 81.94152 34869 ft 512 kts 85°
2026-05-05 10:19 26.87842 82.00751 34869 ft 512 kts 85°
2026-05-05 10:19 26.88668 82.08704 34862 ft 511 kts 85°
2026-05-05 10:20 26.89473 82.16562 34859 ft 511 kts 85°
2026-05-05 10:20 26.90277 82.24451 34855 ft 511 kts 85°
2026-05-05 10:21 26.91092 82.32397 34870 ft 513 kts 85°
2026-05-05 10:21 26.91893 82.40337 34864 ft 511 kts 85°
2026-05-05 10:22 26.92683 82.48218 34858 ft 510 kts 85°
2026-05-05 10:22 26.93476 82.56132 34864 ft 510 kts 85°
2026-05-05 10:23 26.94256 82.64010 34864 ft 510 kts 85°
2026-05-05 10:23 26.95034 82.71919 34866 ft 510 kts 85°
2026-05-05 10:24 26.95816 82.79834 34870 ft 510 kts 85°
2026-05-05 10:24 26.96589 82.87737 34867 ft 511 kts 85°
2026-05-05 10:25 26.97362 82.95680 34869 ft 512 kts 85°
2026-05-05 10:25 26.98123 83.03576 34872 ft 512 kts 84°
2026-05-05 10:26 26.98932 83.11521 34872 ft 512 kts 84°
2026-05-05 10:26 26.99761 83.19408 34876 ft 512 kts 84°
2026-05-05 10:27 27.00577 83.27361 34876 ft 512 kts 84°
2026-05-05 10:27 27.01368 83.35274 34880 ft 512 kts 84°
2026-05-05 10:28 27.02160 83.43225 34909 ft 512 kts 85°
2026-05-05 10:28 27.02951 83.51172 34899 ft 512 kts 85°
2026-05-05 10:29 27.03738 83.59056 34896 ft 511 kts 85°
2026-05-05 10:29 27.04522 83.66996 34896 ft 511 kts 85°
2026-05-05 10:30 27.05298 83.74878 34884 ft 510 kts 85°
2026-05-05 10:30 27.06072 83.82803 34834 ft 510 kts 85°
2026-05-05 10:31 27.06456 83.86758 34604 ft 509 kts 85°
2026-05-05 10:31 27.06836 83.90688 33758 ft 515 kts 85°
2026-05-05 10:31 27.07224 83.94737 32665 ft 522 kts 85°
2026-05-05 10:31 27.07613 83.98803 31848 ft 523 kts 85°
2026-05-05 10:32 27.07998 84.02795 30944 ft 516 kts 85°
2026-05-05 10:32 27.08388 84.06839 29600 ft 527 kts 85°
2026-05-05 10:32 27.08778 84.10925 28808 ft 523 kts 85°
2026-05-05 10:32 27.09160 84.14971 28023 ft 520 kts 85°
2026-05-05 10:33 27.09541 84.19013 27142 ft 520 kts 85°
2026-05-05 10:33 27.09914 84.22982 26554 ft 514 kts 85°
2026-05-05 10:33 27.10290 84.26966 25770 ft 513 kts 85°
2026-05-05 10:33 27.10662 84.30927 25345 ft 504 kts 85°
2026-05-05 10:34 27.11027 84.34783 24320 ft 493 kts 85°
2026-05-05 10:34 27.11388 84.38624 23697 ft 491 kts 85°
2026-05-05 10:34 27.11739 84.42420 22989 ft 488 kts 85°
2026-05-05 10:34 27.12087 84.46200 22402 ft 482 kts 85°
2026-05-05 10:35 27.12430 84.49926 21765 ft 477 kts 85°
2026-05-05 10:35 27.12769 84.53619 21219 ft 471 kts 85°
2026-05-05 10:35 27.13100 84.57225 20665 ft 466 kts 85°
2026-05-05 10:35 27.13430 84.60831 20139 ft 460 kts 85°
2026-05-05 10:36 27.13769 84.64383 19630 ft 454 kts 82°
2026-05-05 10:36 27.14471 84.67766 19174 ft 448 kts 71°
2026-05-05 10:36 27.15615 84.71011 18701 ft 441 kts 67°
2026-05-05 10:36 27.16781 84.74153 18223 ft 429 kts 67°
2026-05-05 10:37 27.17907 84.77201 17727 ft 424 kts 67°
2026-05-05 10:37 27.19030 84.80252 17251 ft 419 kts 67°
2026-05-05 10:37 27.20135 84.83266 16786 ft 414 kts 67°
2026-05-05 10:37 27.21227 84.86246 16308 ft 410 kts 67°
2026-05-05 10:38 27.22307 84.89196 15836 ft 406 kts 67°
2026-05-05 10:38 27.23364 84.92085 15349 ft 402 kts 67°
2026-05-05 10:38 27.24423 84.94986 14876 ft 399 kts 67°
2026-05-05 10:38 27.25478 84.97870 14386 ft 396 kts 67°
2026-05-05 10:39 27.26525 85.00731 13924 ft 394 kts 67°
2026-05-05 10:39 27.27551 85.03534 13449 ft 389 kts 67°
2026-05-05 10:39 27.28581 85.06348 12841 ft 388 kts 67°
2026-05-05 10:39 27.29609 85.09157 12316 ft 386 kts 67°
2026-05-05 10:40 27.30628 85.11950 11794 ft 384 kts 67°
2026-05-05 10:40 27.31645 85.14672 11299 ft 380 kts 63°
2026-05-05 10:40 27.33099 85.17130 10799 ft 375 kts 46°
2026-05-05 10:40 27.35052 85.19000 10553 ft 361 kts 31°
2026-05-05 10:41 27.37257 85.20208 10415 ft 345 kts 17°
2026-05-05 10:41 27.39525 85.20771 10322 ft 319 kts
2026-05-05 10:41 27.41684 85.20843 10199 ft 303 kts 360°
2026-05-05 10:41 27.43750 85.20940 9840 ft 296 kts
2026-05-05 10:42 27.47799 85.21481 9183 ft 290 kts 13°
2026-05-05 10:42 27.49727 85.22116 9054 ft 291 kts 16°
2026-05-05 10:42 27.51633 85.22890 8814 ft 291 kts 25°
2026-05-05 10:43 27.53312 85.24152 8558 ft 290 kts 41°
2026-05-05 10:43 27.54798 85.25713 8356 ft 291 kts 42°
2026-05-05 10:43 27.56278 85.27270 8139 ft 289 kts 42°
2026-05-05 10:43 27.57732 85.28797 7929 ft 282 kts 42°
2026-05-05 10:44 27.59113 85.30326 7717 ft 274 kts 49°
2026-05-05 10:44 27.60138 85.32065 7565 ft 267 kts 63°
2026-05-05 10:44 27.60819 85.34002 7373 ft 262 kts 70°
2026-05-05 10:44 27.61442 85.35927 7194 ft 257 kts 69°
2026-05-05 10:45 27.62128 85.37749 6985 ft 247 kts 59°
2026-05-05 10:45 27.63115 85.39279 6802 ft 242 kts 49°
2026-05-05 10:45 27.64183 85.40745 6622 ft 242 kts 49°
2026-05-05 10:45 27.65243 85.42210 6439 ft 241 kts 50°
2026-05-05 10:46 27.66298 85.43665 6260 ft 238 kts 50°
2026-05-05 10:46 27.67454 85.44975 6076 ft 228 kts 33°
2026-05-05 10:46 27.68838 85.45585 5880 ft 204 kts
2026-05-05 10:46 27.70141 85.45338 5566 ft 186 kts 332°
2026-05-05 10:47 27.71113 85.44443 5493 ft 179 kts 309°
2026-05-05 10:47 27.71932 85.43393 5414 ft 176 kts 310°
2026-05-05 10:47 27.72749 85.42348 5364 ft 176 kts 310°
2026-05-05 10:47 27.73526 85.41348 5159 ft 165 kts 309°
2026-05-05 10:48 27.74012 85.40238 4986 ft 158 kts 276°
2026-05-05 10:48 27.73791 85.39039 4859 ft 160 kts 243°
2026-05-05 10:48 27.73132 85.38029 4727 ft 159 kts 231°
2026-05-05 10:48 27.72289 85.37210 4617 ft 161 kts 215°
2026-05-05 10:49 27.71282 85.36665 4500 ft 158 kts 206°
2026-05-05 10:49 27.70287 85.36191 4394 ft 150 kts 196°
2026-05-05 10:49 27.69585 85.35886 4351 ft 63 kts 200°
2026-05-05 10:49 27.69334 85.35776 4354 ft 32 kts 205°
2026-05-05 10:50 27.69139 85.35689 4346 ft 20 kts 205°
2026-05-05 10:50 27.69069 85.35605 4344 ft 14 kts 276°
2026-05-05 10:50 27.69126 85.35561 4347 ft 9 kts
2026-05-05 10:50 27.69170 85.35571 4350 ft 5 kts 19°
2026-05-05 10:51 27.69187 85.35578 4348 ft 1 kts 21°
2026-05-05 10:51 27.69190 85.35579 4353 ft 2 kts 21°
2026-05-05 10:51 27.69214 85.35590 4350 ft 5 kts 22°
2026-05-05 10:51 27.69261 85.35611 4341 ft 9 kts 21°
2026-05-05 10:52 27.69309 85.35634 4343 ft 0 kts 24°
2026-05-05 10:52 27.69311 85.35635 4344 ft 3 kts 24°
2026-05-05 10:53 27.69357 85.35656 4351 ft 7 kts 22°
2026-05-05 10:53 27.69400 85.35676 4362 ft 4 kts 21°
2026-05-05 10:53 27.69471 85.35705 4349 ft 17 kts 21°
2026-05-05 10:53 27.69576 85.35755 4359 ft 16 kts 22°
2026-05-05 10:54 27.69668 85.35797 4355 ft 13 kts 22°
2026-05-05 10:54 27.69739 85.35829 4368 ft 10 kts 22°
2026-05-05 10:54 27.69791 85.35854 4366 ft 6 kts 22°
2026-05-05 10:54 27.69821 85.35867 4357 ft 3 kts 21°
2026-05-05 10:55 27.69858 85.35884 4363 ft 11 kts 22°
2026-05-05 10:55 27.69926 85.35917 4359 ft 8 kts 22°
2026-05-05 10:55 27.69963 85.35904 4368 ft 4 kts 313°
2026-05-05 10:55 27.69973 85.35883 4366 ft 2 kts 293°
2026-05-05 10:56 27.69977 85.35872 4364 ft 2 kts 295°
2026-05-05 10:56 27.69992 85.35835 4374 ft 3 kts 293°
2026-05-05 10:56 27.69994 85.35831 4374 ft 0 kts 295°